This demonstration page uses our WeatherBlox Daily Observations layout. Learn more.

Left ArrowRight Arrow

Hourly Observations for April 20, 2018

Temp ( °F °C ) Dew Point ( °F °C ) Humidity (%) Winds ( mph kmh ) Pressure ( in mb ) Visibility ( mi km ) Precip ( " mm )
12:59 am 00:59 Clear 47 8.3 26 -3.3 44 44 NNW 17 28 30.20 1023 10 16 0.00 0.00
1:59 am 01:59 Clear 45 7.2 26 -3.3 48 48 NW 10 17 30.20 1023 10 16 0.00 0.00
2:59 am 02:59 Clear 45 7.2 28 -2.2 52 52 NNW 14 22 30.20 1023 10 16 0.00 0.00
3:59 am 03:59 Clear 44 6.7 27 -2.8 51 51 NW 9 15 30.22 1023 10 16 0.00 0.00
4:59 am 04:59 Clear 45 7.2 28 -2.2 52 52 WNW 9 15 30.22 1024 10 16 0.00 0.00
5:59 am 05:59 Clear 45 7.2 28 -2.2 52 52 NW 12 19 30.24 1024 10 16 0.00 0.00
6:59 am 06:59 Mostly Sunny 44 6.7 28 -2.2 53 53 NNW 15 24 30.27 1025 10 16 0.00 0.00
7:59 am 07:59 Mostly Sunny 45 7.2 27 -2.8 49 49 N 16 26 30.29 1026 10 16 0.00 0.00
8:59 am 08:59 Mostly Sunny 47 8.3 25 -3.9 42 42 NNW 16 26 30.30 1026 10 16 0.00 0.00
9:59 am 09:59 Sunny 49 9.4 25 -3.9 39 39 NNW 16 26 30.32 1027 10 16 0.00 0.00
10:59 am 10:59 Sunny 51 10.6 26 -3.3 38 38 NNW 16 26 30.33 1027 10 16 0.00 0.00
11:59 am 11:59 Sunny 52 11.1 25 -3.9 35 35 NNW 14 22 30.32 1027 10 16 0.00 0.00
12:59 pm 12:59 Sunny 55 12.8 25 -3.9 31 31 NNW 15 24 30.31 1027 10 16 0.00 0.00
1:59 pm 13:59 Sunny 56 13.3 27 -2.8 33 33 W 16 26 30.31 1026 10 16 0.00 0.00
2:59 pm 14:59 Sunny 59 15 27 -2.8 29 29 NW 15 24 30.29 1026 10 16 0.00 0.00
3:59 pm 15:59 Mostly Sunny 59 15 28 -2.2 31 31 NE 5 7 30.27 1025 10 16 0.00 0.00
4:59 pm 16:59 Sunny 56 13.3 31 -0.6 39 39 NE 7 11 30.28 1026 10 16 0.00 0.00
5:59 pm 17:59 Sunny 55 12.8 32 0 42 42 E 7 11 30.28 1026 10 16 0.00 0.00
6:59 pm 18:59 Sunny 54 12.2 30 -1.1 40 40 E 8 13 30.29 1026 10 16 0.00 0.00
7:59 pm 19:59 Clear 52 11.1 32 0 47 47 ENE 5 7 30.31 1027 10 16 0.00 0.00
8:59 pm 20:59 Clear 48 8.9 35 1.7 61 61 E 3 6 30.34 1028 10 16 0.00 0.00
9:59 pm 21:59 Clear 46 7.8 35 1.7 66 66 SSE 3 6 30.36 1028 10 16 0.00 0.00
10:59 pm 22:59 Clear 46 7.8 35 1.7 66 66 SSE 3 6 30.38 1029 10 16 0.00 0.00
11:59 pm 23:59 Clear 42 5.6 35 1.7 76 76 S 3 6 30.39 1029 10 16 0.00 0.00

Powered by AerisWeather